Погода в Ифе

Нигерия     7°28′47″N   4°33′42″E
темп.,
°C
ветер,
м/с
пор.,
м/с
влажн.,
%
обл.,
%
осадки,
мм/ч
давл.,
гПа
погр.,
м
5 марта, пт
пт501:00+23юз119523 0.0 100929
04:00+22ю11985 0.0 100823
07:00+22в019922 0.0 100923
10:00+29ююз226468 0.0 1010791
13:00+37ю233450 0.0 10081719
16:00+39ююв142333 0.0 10043041
19:00+32ю373936 0.0 1006379
22:00+26ю278064 0.0 1009531
6 марта, сб
сб601:00+23ю129632 0.0 101052
04:00+23ююз169978 0.0 1009249
07:00+24юз139289 0.1 1011232
10:00+27зюз1372100 0.1 1013644
13:00+35юз214390 0.2 10111504
16:00+35ююз223874 0.0 10081993
19:00+31юз475387 0.1 1008627
22:00+25ююз288141 0.4 1010371
7 марта, вс
вс701:00+23ююз139647 0.4 1010108
04:00+22зюз019954 0.0 100923
07:00+22юз119965 0.0 101123
10:00+30зюз246047 0.0 1013834
13:00+40з122841 0.0 10102311
16:00+38юз2227100 0.0 10072564
19:00+29ю3863100 0.3 1007681
22:00+25ю278679 0.1 1010482
8 марта, пн
пн801:00+23юз299854 0.1 1009485
04:00+23юз179756 0.1 1008480
07:00+23юз129958 0.2 100962
10:00+30юз246131 0.0 1012978
13:00+32юз235363 0.0 10091220
16:00+34юз324767 0.6 10061539
19:00+30ю375833 0.6 1006453
22:00+25ю39850 0.1 1009535
9 марта, вт
вт901:00+24ююз289428 0.2 1009529
04:00+24юз299560 0.1 1008561
07:00+25юз288780 0.3 1008526
10:00+29юз246699 0.1 1010900
13:00+37зюз233457 0.1 10072244
16:00+32юз454672 0.2 1004471
19:00+25зюз398744 4.1 1005415
22:00+24ююз2991100 1.8 1008493